12-05-2022, 00:00:01,    199,    0.0,    7.7,   0.00,   0.00, 1012.3,   87.3, -999.0
12-05-2022, 00:00:11,    199,    0.0,    7.6,   0.00,   0.00, 1012.2,   87.2, -999.0
12-05-2022, 00:00:21,    199,    0.0,    7.7,   0.00,   0.00, 1012.2,   87.3, -999.0
12-05-2022, 00:00:31,    199,    0.0,    7.6,   0.00,   0.00, 1012.2,   87.1, -999.0
12-05-2022, 00:00:41,    199,    0.0,    7.7,   0.00,   0.00, 1012.2,   87.0, -999.0
12-05-2022, 00:00:50,    273,    0.2,    7.7,   0.00,   0.00, 1012.2,   87.2, -999.0
12-05-2022, 00:01:01,    257,    0.7,    7.7,   0.00,   0.00, 1012.3,   87.4, -999.0
12-05-2022, 00:01:11,    231,    0.2,    7.7,   0.00,   0.00, 1012.3,   87.3, -999.0
12-05-2022, 00:01:20,    232,    0.0,    7.6,   0.00,   0.00, 1012.2,   87.0, -999.0
12-05-2022, 00:01:30,    233,    0.1,    7.7,   0.00,   0.00, 1012.3,   87.2, -999.0
12-05-2022, 00:01:41,    233,    0.0,    7.6,   0.00,   0.00, 1012.2,   87.0, -999.0
12-05-2022, 00:01:50,    233,    0.0,    7.6,   0.00,   0.00, 1012.2,   87.0, -999.0
12-05-2022, 00:02:00,    228,    0.1,    7.5,   0.00,   0.00, 1012.3,   87.2, -999.0
12-05-2022, 00:02:10,    227,    0.7,    7.6,   0.00,   0.00, 1012.3,   87.5, -999.0
12-05-2022, 00:02:20,    229,    0.5,    7.8,   0.00,   0.00, 1012.3,   87.5, -999.0
12-05-2022, 00:02:30,    225,    0.7,    7.8,   0.00,   0.00, 1012.3,   87.4, -999.0
12-05-2022, 00:02:40,    227,    0.3,    7.7,   0.00,   0.00, 1012.3,   87.4, -999.0
12-05-2022, 00:02:50,    227,    0.0,    7.7,   0.00,   0.00, 1012.2,   87.2, -999.0
12-05-2022, 00:03:00,    226,    0.0,    7.7,   0.00,   0.00, 1012.2,   87.2, -999.0
12-05-2022, 00:03:10,    228,    0.0,    7.7,   0.00,   0.00, 1012.2,   87.1, -999.0
12-05-2022, 00:03:20,    226,    0.0,    7.7,   0.00,   0.00, 1012.2,   87.1, -999.0
12-05-2022, 00:03:30,    231,    0.0,    7.7,   0.00,   0.00, 1012.2,   87.2, -999.0
12-05-2022, 00:03:40,    231,    0.0,    7.7,   0.00,   0.00, 1012.2,   87.1, -999.0
12-05-2022, 00:03:50,    231,    0.0,    7.7,   0.00,   0.00, 1012.2,   87.0, -999.0
12-05-2022, 00:03:59,    231,    0.0,    7.7,   0.00,   0.00, 1012.2,   87.0, -999.0
12-05-2022, 00:04:10,    232,    0.0,    7.6,   0.00,   0.00, 1012.2,   87.0, -999.0
12-05-2022, 00:04:20,    231,    0.0,    7.6,   0.00,   0.00, 1012.2,   87.0, -999.0
12-05-2022, 00:04:29,    231,    0.0,    7.6,   0.00,   0.00, 1012.2,   86.9, -999.0
12-05-2022, 00:04:39,    231,    0.0,    7.6,   0.00,   0.00, 1012.2,   86.9, -999.0
12-05-2022, 00:04:50,    231,    0.0,    7.6,   0.00,   0.00, 1012.2,   87.0, -999.0
12-05-2022, 00:04:59,    251,    1.0,    7.7,   0.00,   0.00, 1012.3,   87.3, -999.0
12-05-2022, 00:05:09,    251,    0.5,    7.7,   0.00,   0.00, 1012.3,   87.3, -999.0
12-05-2022, 00:05:19,    250,    0.4,    7.6,   0.00,   0.00, 1012.3,   87.3, -999.0
12-05-2022, 00:05:29,    249,    0.1,    7.6,   0.00,   0.00, 1012.3,   87.2, -999.0
12-05-2022, 00:05:39,    249,    0.0,    7.6,   0.00,   0.00, 1012.2,   87.0, -999.0
12-05-2022, 00:05:49,    249,    0.0,    7.7,   0.00,   0.00, 1012.2,   86.9, -999.0
12-05-2022, 00:05:59,    249,    0.0,    7.6,   0.00,   0.00, 1012.2,   87.0, -999.0
12-05-2022, 00:06:09,    207,    0.0,    7.7,   0.00,   0.00, 1012.2,   87.1, -999.0
12-05-2022, 00:06:19,    238,    1.4,    7.7,   0.00,   0.00, 1012.3,   87.4, -999.0
12-05-2022, 00:06:29,    235,    0.6,    7.7,   0.00,   0.00, 1012.3,   87.4, -999.0
12-05-2022, 00:06:39,    241,    2.3,    7.7,   0.00,   0.00, 1012.3,   87.5, -999.0
12-05-2022, 00:06:49,    219,    0.6,    7.8,   0.00,   0.00, 1012.3,   87.4, -999.0
12-05-2022, 00:06:59,    218,    0.2,    7.7,   0.00,   0.00, 1012.3,   87.5, -999.0
12-05-2022, 00:07:09,    220,    0.0,    7.6,   0.00,   0.00, 1012.2,   87.1, -999.0
12-05-2022, 00:07:19,    219,    0.0,    7.7,   0.00,   0.00, 1012.2,   87.1, -999.0
12-05-2022, 00:07:29,    219,    0.0,    7.7,   0.00,   0.00, 1012.2,   87.1, -999.0
12-05-2022, 00:07:38,    221,    0.1,    7.7,   0.00,   0.00, 1012.3,   87.3, -999.0
12-05-2022, 00:07:48,    221,    0.0,    7.7,   0.00,   0.00, 1012.3,   87.2, -999.0
12-05-2022, 00:07:59,    222,    0.0,    7.6,   0.00,   0.00, 1012.2,   87.0, -999.0
12-05-2022, 00:08:08,    221,    0.0,    7.6,   0.00,   0.00, 1012.2,   87.1, -999.0
12-05-2022, 00:08:18,    221,    0.0,    7.6,   0.00,   0.00, 1012.2,   86.9, -999.0
12-05-2022, 00:08:29,    221,    0.0,    7.6,   0.00,   0.00, 1012.2,   87.0, -999.0
12-05-2022, 00:08:38,    225,    0.4,    7.7,   0.00,   0.00, 1012.3,   87.2, -999.0
12-05-2022, 00:08:48,    290,    0.3,    7.7,   0.00,   0.00, 1012.3,   87.3, -999.0
12-05-2022, 00:08:58,    249,    0.0,    7.7,   0.00,   0.00, 1012.3,   87.1, -999.0
12-05-2022, 00:09:08,    249,    0.1,    7.7,   0.00,   0.00, 1012.2,   87.2, -999.0
12-05-2022, 00:09:18,    280,    0.4,    7.7,   0.00,   0.00, 1012.3,   87.3, -999.0
12-05-2022, 00:09:28,    263,    0.1,    7.7,   0.00,   0.00, 1012.3,   87.3, -999.0
12-05-2022, 00:09:38,    255,    0.0,    7.6,   0.00,   0.00, 1012.2,   87.1, -999.0
12-05-2022, 00:09:48,    255,    0.0,    7.7,   0.00,   0.00, 1012.2,   87.1, -999.0
12-05-2022, 00:09:58,    220,    0.0,    7.7,   0.00,   0.00, 1012.2,   87.1, -999.0
12-05-2022, 00:10:08,    220,    0.0,    7.7,   0.00,   0.00, 1012.3,   87.0, -999.0
12-05-2022, 00:10:18,    220,    0.0,    7.6,   0.00,   0.00, 1012.2,   87.0, -999.0
12-05-2022, 00:10:28,    220,    0.0,    7.6,   0.00,   0.00, 1012.3,   86.9, -999.0
12-05-2022, 00:10:38,    220,    0.0,    7.6,   0.00,   0.00, 1012.2,   87.0, -999.0
12-05-2022, 00:10:47,    225,    0.0,    7.7,   0.00,   0.00, 1012.3,   87.1, -999.0
12-05-2022, 00:10:58,    224,    0.0,    7.6,   0.00,   0.00, 1012.2,   86.9, -999.0
12-05-2022, 00:11:08,    224,    0.0,    7.7,   0.00,   0.00, 1012.3,   86.9, -999.0
12-05-2022, 00:11:17,    224,    0.0,    7.6,   0.00,   0.00, 1012.2,   87.0, -999.0
12-05-2022, 00:11:27,    224,    0.0,    7.7,   0.00,   0.00, 1012.3,   87.0, -999.0
12-05-2022, 00:11:38,    227,    0.0,    7.7,   0.00,   0.00, 1012.3,   87.2, -999.0
12-05-2022, 00:11:47,    227,    0.0,    7.7,   0.00,   0.00, 1012.2,   87.0, -999.0
12-05-2022, 00:11:57,    228,    0.0,    7.6,   0.00,   0.00, 1012.2,   87.0, -999.0
12-05-2022, 00:12:07,    227,    0.0,    7.6,   0.00,   0.00, 1012.2,   87.0, -999.0
12-05-2022, 00:12:17,    229,    0.0,    7.6,   0.00,   0.00, 1012.3,   87.1, -999.0
12-05-2022, 00:12:27,    230,    0.0,    7.6,   0.00,   0.00, 1012.3,   87.0, -999.0
12-05-2022, 00:12:37,    200,    0.0,    7.6,   0.00,   0.00, 1012.2,   86.9, -999.0
12-05-2022, 00:12:47,    202,    0.0,    7.6,   0.00,   0.00, 1012.2,   87.0, -999.0
12-05-2022, 00:12:57,    201,    0.0,    7.6,   0.00,   0.00, 1012.3,   86.9, -999.0
12-05-2022, 00:13:07,    201,    0.0,    7.6,   0.00,   0.00, 1012.2,   86.9, -999.0
12-05-2022, 00:13:17,    204,    0.0,    7.6,   0.00,   0.00, 1012.3,   86.9, -999.0
12-05-2022, 00:13:27,    232,    0.6,    7.6,   0.00,   0.00, 1012.3,   87.1, -999.0
12-05-2022, 00:13:37,    219,    0.8,    7.6,   0.00,   0.00, 1012.3,   87.2, -999.0
12-05-2022, 00:13:47,    221,    0.0,    7.7,   0.00,   0.00, 1012.3,   87.2, -999.0
12-05-2022, 00:13:56,    263,    0.0,    7.6,   0.00,   0.00, 1012.2,   87.0, -999.0
12-05-2022, 00:14:07,    263,    0.0,    7.6,   0.00,   0.00, 1012.2,   87.2, -999.0
12-05-2022, 00:14:17,    263,    0.0,    7.6,   0.00,   0.00, 1012.3,   87.1, -999.0
12-05-2022, 00:14:26,    263,    0.0,    7.6,   0.00,   0.00, 1012.2,   87.0, -999.0
12-05-2022, 00:14:36,    262,    0.0,    7.6,   0.00,   0.00, 1012.2,   86.9, -999.0
12-05-2022, 00:14:47,    262,    0.0,    7.6,   0.00,   0.00, 1012.2,   87.0, -999.0
12-05-2022, 00:14:56,    262,    0.4,    7.6,   0.00,   0.00, 1012.3,   87.2, -999.0
12-05-2022, 00:15:06,    223,    0.6,    7.7,   0.00,   0.00, 1012.4,   87.3, -999.0
12-05-2022, 00:15:17,    234,    1.3,    7.7,   0.00,   0.00, 1012.3,   87.3, -999.0
12-05-2022, 00:15:26,    236,    0.9,    7.7,   0.00,   0.00, 1012.4,   87.3, -999.0
12-05-2022, 00:15:36,    233,    0.2,    7.7,   0.00,   0.00, 1012.3,   87.2, -999.0
12-05-2022, 00:15:46,    232,    0.0,    7.6,   0.00,   0.00, 1012.2,   87.1, -999.0
12-05-2022, 00:15:56,    232,    0.4,    7.6,   0.00,   0.00, 1012.3,   87.2, -999.0
12-05-2022, 00:16:06,    239,    1.8,    7.7,   0.00,   0.00, 1012.4,   87.4, -999.0
12-05-2022, 00:16:16,    238,    0.7,    7.7,   0.00,   0.00, 1012.3,   87.4, -999.0
12-05-2022, 00:16:26,    238,    0.7,    7.7,   0.00,   0.00, 1012.4,   87.4, -999.0
12-05-2022, 00:16:36,    243,    0.6,    7.7,   0.00,   0.00, 1012.4,   87.3, -999.0
12-05-2022, 00:16:46,    243,    0.0,    7.6,   0.00,   0.00, 1012.2,   87.0, -999.0
12-05-2022, 00:16:56,    243,    0.0,    7.6,   0.00,   0.00, 1012.2,   87.0, -999.0
12-05-2022, 00:17:06,    275,    0.7,    7.7,   0.00,   0.00, 1012.3,   87.3, -999.0
12-05-2022, 00:17:16,    175,    0.3,    7.6,   0.00,   0.00, 1012.3,   87.1, -999.0
12-05-2022, 00:17:26,    175,    0.0,    7.6,   0.00,   0.00, 1012.2,   87.0, -999.0
12-05-2022, 00:17:36,    174,    0.0,    7.6,   0.00,   0.00, 1012.2,   87.0, -999.0
12-05-2022, 00:17:45,    174,    0.0,    7.6,   0.00,   0.00, 1012.2,   87.0, -999.0
12-05-2022, 00:17:56,    288,    0.0,    7.6,   0.00,   0.00, 1012.2,   87.0, -999.0
12-05-2022, 00:18:05,    250,    0.6,    7.6,   0.00,   0.00, 1012.4,   87.3, -999.0
12-05-2022, 00:18:15,    234,    0.2,    7.6,   0.00,   0.00, 1012.3,   87.3, -999.0
12-05-2022, 00:18:26,    240,    0.3,    7.6,   0.00,   0.00, 1012.3,   87.1, -999.0
12-05-2022, 00:18:35,    251,    0.9,    7.6,   0.00,   0.00, 1012.4,   87.3, -999.0
12-05-2022, 00:18:45,    251,    0.1,    7.6,   0.00,   0.00, 1012.3,   87.1, -999.0
12-05-2022, 00:18:55,    251,    0.0,    7.6,   0.00,   0.00, 1012.3,   87.1, -999.0
12-05-2022, 00:19:06,    231,    0.1,    7.7,   0.00,   0.00, 1012.3,   87.4, -999.0
12-05-2022, 00:19:15,    259,    2.6,    7.7,   0.00,   0.00, 1012.4,   87.5, -999.0
12-05-2022, 00:19:25,    243,    2.3,    7.7,   0.00,   0.00, 1012.4,   87.3, -999.0
12-05-2022, 00:19:35,    246,    1.5,    7.7,   0.00,   0.00, 1012.4,   87.3, -999.0
12-05-2022, 00:19:45,    246,    0.0,    7.6,   0.00,   0.00, 1012.3,   86.9, -999.0
12-05-2022, 00:19:55,    247,    0.0,    7.6,   0.00,   0.00, 1012.3,   87.0, -999.0
12-05-2022, 00:20:05,    247,    0.2,    7.7,   0.00,   0.00, 1012.4,   87.2, -999.0
12-05-2022, 00:20:15,    247,    0.2,    7.7,   0.00,   0.00, 1012.4,   87.0, -999.0
12-05-2022, 00:20:25,    246,    0.0,    7.6,   0.00,   0.00, 1012.3,   86.9, -999.0
12-05-2022, 00:20:35,    266,    0.4,    7.6,   0.00,   0.00, 1012.4,   87.2, -999.0
12-05-2022, 00:20:44,    264,    0.6,    7.7,   0.00,   0.00, 1012.4,   87.2, -999.0
12-05-2022, 00:20:55,    263,    0.1,    7.6,   0.00,   0.00, 1012.3,   87.1, -999.0
12-05-2022, 00:21:05,    264,    0.0,    7.6,   0.00,   0.00, 1012.3,   86.9, -999.0
12-05-2022, 00:21:14,    222,    0.0,    7.5,   0.00,   0.00, 1012.3,   86.8, -999.0
12-05-2022, 00:21:24,    225,    0.9,    7.6,   0.00,   0.00, 1012.5,   87.3, -999.0
12-05-2022, 00:21:35,    247,    1.3,    7.6,   0.00,   0.00, 1012.5,   87.3, -999.0
12-05-2022, 00:21:54,    243,    0.6,    7.6,   0.00,   0.00, 1012.5,   87.2, -999.0
12-05-2022, 00:22:05,    243,    0.2,    7.6,   0.00,   0.00, 1012.4,   87.1, -999.0
12-05-2022, 00:22:14,    243,    0.0,    7.5,   0.00,   0.00, 1012.3,   86.9, -999.0
12-05-2022, 00:22:24,    242,    0.0,    7.6,   0.00,   0.00, 1012.3,   86.8, -999.0
12-05-2022, 00:22:34,    236,    0.0,    7.4,   0.00,   0.00, 1012.3,   87.0, -999.0
12-05-2022, 00:22:44,    238,    0.0,    7.5,   0.00,   0.00, 1012.3,   86.9, -999.0
12-05-2022, 00:22:54,    242,    0.0,    7.6,   0.00,   0.00, 1012.3,   87.0, -999.0
12-05-2022, 00:23:04,    247,    1.9,    7.7,   0.00,   0.00, 1012.5,   87.3, -999.0
12-05-2022, 00:23:14,    257,    0.2,    7.6,   0.00,   0.00, 1012.5,   87.3, -999.0
12-05-2022, 00:23:24,    257,    0.4,    7.6,   0.00,   0.00, 1012.4,   87.2, -999.0
12-05-2022, 00:23:34,    245,    0.1,    7.5,   0.00,   0.00, 1012.4,   86.9, -999.0
12-05-2022, 00:23:44,    262,    0.7,    7.6,   0.00,   0.00, 1012.5,   87.1, -999.0
12-05-2022, 00:23:53,    255,    1.5,    7.6,   0.00,   0.00, 1012.5,   87.2, -999.0
12-05-2022, 00:24:04,    220,    0.1,    7.5,   0.00,   0.00, 1012.5,   87.0, -999.0
12-05-2022, 00:24:14,    220,    0.0,    7.5,   0.00,   0.00, 1012.4,   86.9, -999.0
12-05-2022, 00:24:23,    222,    0.0,    7.5,   0.00,   0.00, 1012.4,   87.0, -999.0
12-05-2022, 00:24:34,    221,    3.1,    7.6,   0.00,   0.00, 1012.6,   87.3, -999.0
12-05-2022, 00:24:44,    220,    1.1,    7.6,   0.00,   0.00, 1012.5,   87.4, -999.0
12-05-2022, 00:24:53,    222,    0.9,    7.6,   0.00,   0.00, 1012.5,   87.4, -999.0
12-05-2022, 00:25:03,    222,    0.3,    7.5,   0.00,   0.00, 1012.6,   87.4, -999.0
12-05-2022, 00:25:14,    222,    0.0,    7.5,   0.00,   0.00, 1012.4,   87.1, -999.0
12-05-2022, 00:25:23,    255,    0.3,    7.5,   0.00,   0.00, 1012.5,   87.3, -999.0
12-05-2022, 00:25:33,    267,    0.5,    7.6,   0.00,   0.00, 1012.6,   87.5, -999.0
12-05-2022, 00:25:43,    267,    0.2,    7.6,   0.00,   0.00, 1012.5,   87.2, -999.0
12-05-2022, 00:25:53,    267,    0.0,    7.5,   0.00,   0.00, 1012.4,   87.1, -999.0
12-05-2022, 00:26:03,    267,    0.1,    7.6,   0.00,   0.00, 1012.5,   87.3, -999.0
12-05-2022, 00:26:13,    263,    0.0,    7.5,   0.00,   0.00, 1012.5,   87.1, -999.0
12-05-2022, 00:26:23,    214,    0.5,    7.6,   0.00,   0.00, 1012.6,   87.3, -999.0
12-05-2022, 00:26:33,    214,    0.2,    7.6,   0.00,   0.00, 1012.5,   87.4, -999.0
12-05-2022, 00:26:43,    222,    0.8,    7.6,   0.00,   0.00, 1012.5,   87.4, -999.0
12-05-2022, 00:26:53,    222,    0.0,    7.5,   0.00,   0.00, 1012.4,   87.2, -999.0
12-05-2022, 00:27:03,    224,    0.1,    7.5,   0.00,   0.00, 1012.5,   87.2, -999.0
12-05-2022, 00:27:13,    233,    1.0,    7.5,   0.00,   0.00, 1012.6,   87.4, -999.0
12-05-2022, 00:27:23,    234,    0.8,    7.6,   0.00,   0.00, 1012.6,   87.4, -999.0
12-05-2022, 00:27:32,    220,    0.2,    7.6,   0.00,   0.00, 1012.5,   87.3, -999.0
12-05-2022, 00:27:43,    225,    0.4,    7.4,   0.00,   0.00, 1012.5,   87.2, -999.0
12-05-2022, 00:27:53,    226,    0.0,    7.5,   0.00,   0.00, 1012.4,   87.1, -999.0
12-05-2022, 00:28:02,    226,    0.0,    7.5,   0.00,   0.00, 1012.4,   87.0, -999.0
12-05-2022, 00:28:12,    226,    0.0,    7.5,   0.00,   0.00, 1012.5,   87.0, -999.0
12-05-2022, 00:28:23,    226,    0.0,    7.5,   0.00,   0.00, 1012.4,   87.0, -999.0
12-05-2022, 00:28:32,    227,    0.0,    7.4,   0.00,   0.00, 1012.4,   87.0, -999.0
12-05-2022, 00:28:42,    218,    0.3,    7.5,   0.00,   0.00, 1012.6,   87.2, -999.0
12-05-2022, 00:28:52,    210,    0.2,    7.5,   0.00,   0.00, 1012.5,   87.3, -999.0
12-05-2022, 00:29:02,    209,    0.0,    7.4,   0.00,   0.00, 1012.5,   87.1, -999.0
12-05-2022, 00:29:12,    208,    0.3,    7.5,   0.00,   0.00, 1012.5,   87.2, -999.0
12-05-2022, 00:29:22,    203,    0.6,    7.6,   0.00,   0.00, 1012.6,   87.5, -999.0
12-05-2022, 00:29:32,    218,    1.4,    7.6,   0.00,   0.00, 1012.6,   87.4, -999.0
12-05-2022, 00:29:42,    219,    0.8,    7.6,   0.00,   0.00, 1012.6,   87.5, -999.0
12-05-2022, 00:29:52,    219,    0.6,    7.5,   0.00,   0.00, 1012.6,   87.5, -999.0
12-05-2022, 00:30:02,    219,    0.1,    7.5,   0.00,   0.00, 1012.5,   87.2, -999.0
12-05-2022, 00:30:12,    219,    0.0,    7.5,   0.00,   0.00, 1012.5,   87.1, -999.0
12-05-2022, 00:30:22,    219,    0.0,    7.4,   0.00,   0.00, 1012.5,   87.1, -999.0
12-05-2022, 00:30:32,    219,    0.0,    7.5,   0.00,   0.00, 1012.4,   87.2, -999.0
12-05-2022, 00:30:41,    219,    0.0,    7.5,   0.00,   0.00, 1012.4,   87.1, -999.0
12-05-2022, 00:30:52,    219,    0.0,    7.5,   0.00,   0.00, 1012.5,   87.1, -999.0
12-05-2022, 00:31:02,    218,    0.2,    7.4,   0.00,   0.00, 1012.5,   87.4, -999.0
12-05-2022, 00:31:11,    220,    0.0,    7.4,   0.00,   0.00, 1012.4,   87.1, -999.0
12-05-2022, 00:31:22,    209,    0.2,    7.4,   0.00,   0.00, 1012.5,   87.3, -999.0
12-05-2022, 00:31:32,    208,    0.2,    7.5,   0.00,   0.00, 1012.5,   87.3, -999.0
12-05-2022, 00:31:41,    208,    0.0,    7.4,   0.00,   0.00, 1012.4,   87.1, -999.0
12-05-2022, 00:31:51,    208,    0.0,    7.4,   0.00,   0.00, 1012.4,   87.1, -999.0
12-05-2022, 00:32:02,    207,    0.1,    7.3,   0.00,   0.00, 1012.5,   87.1, -999.0
12-05-2022, 00:32:11,    208,    0.4,    7.4,   0.00,   0.00, 1012.5,   87.3, -999.0
12-05-2022, 00:32:21,    208,    0.4,    7.4,   0.00,   0.00, 1012.5,   87.3, -999.0
12-05-2022, 00:32:31,    207,    0.0,    7.4,   0.00,   0.00, 1012.4,   87.1, -999.0
12-05-2022, 00:32:41,    208,    0.0,    7.4,   0.00,   0.00, 1012.4,   87.1, -999.0
12-05-2022, 00:32:51,    208,    0.0,    7.4,   0.00,   0.00, 1012.4,   87.1, -999.0
12-05-2022, 00:33:01,    208,    0.0,    7.4,   0.00,   0.00, 1012.5,   87.0, -999.0
12-05-2022, 00:33:11,    208,    0.0,    7.4,   0.00,   0.00, 1012.4,   87.0, -999.0
12-05-2022, 00:33:21,    208,    0.0,    7.4,   0.00,   0.00, 1012.5,   87.1, -999.0
12-05-2022, 00:33:31,    208,    0.0,    7.4,   0.00,   0.00, 1012.5,   87.1, -999.0
12-05-2022, 00:33:41,    208,    0.0,    7.4,   0.00,   0.00, 1012.4,   87.2, -999.0
12-05-2022, 00:33:51,    208,    0.0,    7.3,   0.00,   0.00, 1012.5,   87.1, -999.0
12-05-2022, 00:34:01,    208,    0.0,    7.4,   0.00,   0.00, 1012.5,   87.1, -999.0
12-05-2022, 00:34:11,    208,    0.0,    7.4,   0.00,   0.00, 1012.4,   87.2, -999.0
12-05-2022, 00:34:20,    208,    0.6,    7.4,   0.00,   0.00, 1012.6,   87.6, -999.0
12-05-2022, 00:34:31,    189,    0.6,    7.5,   0.00,   0.00, 1012.6,   87.7, -999.0
12-05-2022, 00:34:41,    190,    0.3,    7.4,   0.00,   0.00, 1012.5,   87.6, -999.0
12-05-2022, 00:34:50,    190,    0.8,    7.4,   0.00,   0.00, 1012.6,   87.6, -999.0
12-05-2022, 00:35:00,    190,    0.1,    7.4,   0.00,   0.00, 1012.6,   87.3, -999.0
12-05-2022, 00:35:11,    190,    0.0,    7.3,   0.00,   0.00, 1012.4,   87.2, -999.0
12-05-2022, 00:35:20,    247,    0.6,    7.4,   0.00,   0.00, 1012.5,   87.4, -999.0
12-05-2022, 00:35:30,    249,    1.9,    7.5,   0.00,   0.00, 1012.6,   87.7, -999.0
12-05-2022, 00:35:40,    245,    1.7,    7.5,   0.00,   0.00, 1012.6,   87.5, -999.0
12-05-2022, 00:35:50,    223,    1.3,    7.4,   0.00,   0.00, 1012.6,   87.6, -999.0
12-05-2022, 00:36:00,    223,    0.0,    7.3,   0.00,   0.00, 1012.5,   87.3, -999.0
12-05-2022, 00:36:10,    224,    0.0,    7.4,   0.00,   0.00, 1012.5,   87.3, -999.0
12-05-2022, 00:36:20,    224,    0.0,    7.4,   0.00,   0.00, 1012.5,   87.3, -999.0
12-05-2022, 00:36:30,    223,    0.0,    7.3,   0.00,   0.00, 1012.5,   87.2, -999.0
12-05-2022, 00:36:40,    223,    0.0,    7.3,   0.00,   0.00, 1012.5,   87.2, -999.0
12-05-2022, 00:36:50,    224,    0.0,    7.4,   0.00,   0.00, 1012.5,   87.4, -999.0
12-05-2022, 00:37:00,    224,    0.0,    7.3,   0.00,   0.00, 1012.5,   87.2, -999.0
12-05-2022, 00:37:10,    221,    0.0,    7.3,   0.00,   0.00, 1012.5,   87.2, -999.0
12-05-2022, 00:37:20,    219,    0.3,    7.3,   0.00,   0.00, 1012.5,   87.4, -999.0
12-05-2022, 00:37:29,    216,    0.7,    7.4,   0.00,   0.00, 1012.6,   87.5, -999.0
12-05-2022, 00:37:40,    215,    0.1,    7.4,   0.00,   0.00, 1012.5,   87.4, -999.0
12-05-2022, 00:37:50,    215,    0.0,    7.3,   0.00,   0.00, 1012.5,   87.3, -999.0
12-05-2022, 00:37:59,    215,    0.0,    7.2,   0.00,   0.00, 1012.5,   87.3, -999.0
12-05-2022, 00:38:09,    213,    0.0,    7.3,   0.00,   0.00, 1012.5,   87.2, -999.0
12-05-2022, 00:38:20,    216,    0.0,    7.3,   0.00,   0.00, 1012.5,   87.2, -999.0
12-05-2022, 00:38:29,    215,    0.0,    7.3,   0.00,   0.00, 1012.5,   87.3, -999.0
12-05-2022, 00:38:39,    209,    0.5,    7.3,   0.00,   0.00, 1012.7,   87.7, -999.0
12-05-2022, 00:38:50,    234,    0.7,    7.3,   0.00,   0.00, 1012.6,   87.6, -999.0
12-05-2022, 00:38:59,    250,    1.5,    7.4,   0.00,   0.00, 1012.7,   87.8, -999.0
12-05-2022, 00:39:09,    216,    0.7,    7.4,   0.00,   0.00, 1012.6,   87.6, -999.0
12-05-2022, 00:39:19,    230,    1.0,    7.3,   0.00,   0.00, 1012.6,   87.7, -999.0
12-05-2022, 00:39:29,    230,    1.1,    7.3,   0.00,   0.00, 1012.6,   87.6, -999.0
12-05-2022, 00:39:39,    230,    0.0,    7.3,   0.00,   0.00, 1012.5,   87.3, -999.0
12-05-2022, 00:39:49,    230,    0.0,    7.2,   0.00,   0.00, 1012.6,   87.3, -999.0
12-05-2022, 00:39:59,    230,    0.0,    7.3,   0.00,   0.00, 1012.6,   87.3, -999.0
12-05-2022, 00:40:09,    230,    0.0,    7.2,   0.00,   0.00, 1012.5,   87.4, -999.0
12-05-2022, 00:40:19,    230,    0.0,    7.2,   0.00,   0.00, 1012.6,   87.3, -999.0
12-05-2022, 00:40:29,    229,    0.0,    7.2,   0.00,   0.00, 1012.5,   87.4, -999.0
12-05-2022, 00:40:38,    229,    0.0,    7.3,   0.00,   0.00, 1012.5,   87.3, -999.0
12-05-2022, 00:40:49,    229,    0.0,    7.2,   0.00,   0.00, 1012.5,   87.4, -999.0
12-05-2022, 00:40:59,    229,    0.0,    7.2,   0.00,   0.00, 1012.5,   87.4, -999.0
12-05-2022, 00:41:08,    228,    0.0,    7.2,   0.00,   0.00, 1012.5,   87.4, -999.0
12-05-2022, 00:41:19,    218,    0.0,    7.1,   0.00,   0.00, 1012.6,   87.5, -999.0
12-05-2022, 00:41:29,    222,    0.4,    7.2,   0.00,   0.00, 1012.6,   87.8, -999.0
12-05-2022, 00:41:38,    222,    0.0,    7.2,   0.00,   0.00, 1012.5,   87.5, -999.0
12-05-2022, 00:41:48,    222,    0.0,    7.2,   0.00,   0.00, 1012.5,   87.6, -999.0
12-05-2022, 00:41:59,    223,    0.0,    7.2,   0.00,   0.00, 1012.5,   87.5, -999.0
12-05-2022, 00:42:08,    223,    0.0,    7.2,   0.00,   0.00, 1012.6,   87.4, -999.0
12-05-2022, 00:42:18,    222,    0.0,    7.2,   0.00,   0.00, 1012.5,   87.5, -999.0
12-05-2022, 00:42:28,    223,    0.0,    7.2,   0.00,   0.00, 1012.5,   87.5, -999.0
12-05-2022, 00:42:38,    220,    0.6,    7.2,   0.00,   0.00, 1012.6,   87.8, -999.0
12-05-2022, 00:42:48,    224,    0.5,    7.3,   0.00,   0.00, 1012.6,   87.9, -999.0
12-05-2022, 00:42:58,    225,    0.9,    7.3,   0.00,   0.00, 1012.6,   88.0, -999.0
12-05-2022, 00:43:08,    224,    0.0,    7.2,   0.00,   0.00, 1012.5,   87.7, -999.0
12-05-2022, 00:43:18,    225,    0.0,    7.2,   0.00,   0.00, 1012.5,   87.6, -999.0
12-05-2022, 00:43:28,    213,    0.9,    7.2,   0.00,   0.00, 1012.6,   88.0, -999.0
12-05-2022, 00:43:38,    261,    1.1,    7.3,   0.00,   0.00, 1012.6,   88.1, -999.0
12-05-2022, 00:43:48,    232,    1.3,    7.3,   0.00,   0.00, 1012.7,   88.2, -999.0
12-05-2022, 00:43:58,    232,    0.2,    7.2,   0.00,   0.00, 1012.6,   87.8, -999.0
12-05-2022, 00:44:08,    204,    0.1,    7.3,   0.00,   0.00, 1012.6,   87.9, -999.0
12-05-2022, 00:44:17,    209,    0.0,    7.2,   0.00,   0.00, 1012.6,   87.9, -999.0
12-05-2022, 00:44:28,    209,    0.0,    7.2,   0.00,   0.00, 1012.6,   87.8, -999.0
12-05-2022, 00:44:38,    209,    0.0,    7.1,   0.00,   0.00, 1012.5,   87.7, -999.0
12-05-2022, 00:44:47,    208,    0.0,    7.2,   0.00,   0.00, 1012.5,   87.8, -999.0
12-05-2022, 00:44:57,    209,    0.0,    7.2,   0.00,   0.00, 1012.5,   87.8, -999.0
12-05-2022, 00:45:08,    209,    0.0,    7.2,   0.00,   0.00, 1012.5,   87.8, -999.0
12-05-2022, 00:45:17,    209,    0.0,    7.2,   0.00,   0.00, 1012.5,   87.8, -999.0
12-05-2022, 00:45:27,    209,    0.0,    7.2,   0.00,   0.00, 1012.5,   87.8, -999.0
12-05-2022, 00:45:38,    209,    0.2,    7.2,   0.00,   0.00, 1012.6,   88.0, -999.0
12-05-2022, 00:45:47,    209,    0.0,    7.2,   0.00,   0.00, 1012.5,   87.9, -999.0
12-05-2022, 00:45:57,    209,    0.0,    7.1,   0.00,   0.00, 1012.5,   87.8, -999.0
12-05-2022, 00:46:07,    209,    0.0,    7.2,   0.00,   0.00, 1012.5,   87.7, -999.0
12-05-2022, 00:46:17,    205,    0.1,    7.0,   0.00,   0.00, 1012.6,   88.0, -999.0
12-05-2022, 00:46:27,    216,    2.4,    7.3,   0.00,   0.00, 1012.6,   88.2, -999.0
12-05-2022, 00:46:37,    203,    1.7,    7.3,   0.00,   0.00, 1012.6,   88.2, -999.0
12-05-2022, 00:46:47,    202,    0.2,    7.3,   0.00,   0.00, 1012.5,   88.2, -999.0